Change the Weather History Date:

Wednesday, June 19, 2013

  Actual Average Record
Temperature  
Mean Temperature 70 °F -  
Max Temperature 77 °F 78 °F 86 °F (2003)
Min Temperature 63 °F 66 °F 59 °F (2001)
Cooling Degree Days 5    
Growing Degree Days 20 (Base 50)    
Moisture  
Dew Point 58 °F    
Average Humidity 65    
Maximum Humidity 100    
Minimum Humidity 34    
Precipitation  
Precipitation 0.02 in 0.04 in - ()
Sea Level Pressure  
Sea Level Pressure 29.88 in    
Wind  
Wind Speed 10 mph ()    
Max Wind Speed 23 mph    
Max Gust Speed 29 mph    
Visibility 6.1 miles    
Events Rain    
Averages and records for this station are not official NWS values.
T = Trace of Precipitation, MM = Missing Value Source: Averaged Metar Reports

Daily Weather History Graph

Daily Weather History Graph

Search for Another Location

Airport or City:

Trip Planner

Search our weather history database for the weather conditions in past years. The results will help you decide how hot, cold, wet, or windy it might be!

Date:

Astronomy

Jun. 19, 2013 Rise Set
Actual Time 6:18 AM CEST 9:27 PM CEST
Civil Twilight 5:44 AM CEST 10:01 PM CEST
Nautical Twilight 5:01 AM CEST 10:45 PM CEST
Astronomical Twilight 4:09 AM CEST 11:37 PM CEST
Moon 5:01 PM CEST (6/19) 2:55 AM CEST (6/19)
Length of Visible Light 16h 17m
Length of Day
15h 09m
Waxing Gibbous, 78% of the Moon is Illuminated
Jun 19
Waxing Gibbous
Jun 23
Full
Jun 30
Last Quarter
Jul 8
New
Jul 16
First Quarter

Hourly Weather History & Observations

Time (CEST) Temp. Dew Point Humidity Pressure Visibility Wind Dir Wind Speed Gust Speed Precip Events Conditions
12:00 AM 69.8 °F 68.0 °F 94% 29.80 in 2.5 mi ENE 8.1 mph - N/A Rain Partly Cloudy
12:30 AM 69.8 °F 68.0 °F 94% 29.83 in 2.2 mi ENE 6.9 mph - N/A Rain Partly Cloudy
1:00 AM 69.8 °F 68.0 °F 94% 29.83 in 2.2 mi East 6.9 mph - N/A   Partly Cloudy
1:30 AM 69.8 °F 69.8 °F 100% 29.80 in 1.9 mi ENE 5.8 mph - N/A   Partly Cloudy
2:00 AM 69 °F 67 °F 92% 29.82 in 2 mi ENE 4.6 mph - -   Mist
2:00 AM 69.8 °F 69.8 °F 100% 29.80 in 1.7 mi East 6.9 mph - N/A   Partly Cloudy
2:30 AM 69.8 °F 68.0 °F 94% 29.80 in 1.6 mi East 5.8 mph - N/A   Partly Cloudy
3:00 AM 69.8 °F 69.8 °F 100% 29.80 in 1.6 mi ENE 4.6 mph - N/A   Mostly Cloudy
3:30 AM 69.8 °F 68.0 °F 94% 29.80 in 1.6 mi NE 4.6 mph - N/A   Mostly Cloudy
4:00 AM 69.8 °F 68.0 °F 94% 29.80 in 2.2 mi NNW 8.1 mph - N/A   Mostly Cloudy
4:30 AM 66.2 °F 60.8 °F 83% 29.80 in 6.2 mi NNW 9.2 mph - N/A   Scattered Clouds
5:00 AM 66.2 °F 59.0 °F 78% 29.80 in 6.2 mi NW 10.4 mph - N/A   Partly Cloudy
5:30 AM 66.2 °F 57.2 °F 73% 29.83 in 6.2 mi NNW 10.4 mph - N/A   Partly Cloudy
6:00 AM 66.2 °F 55.4 °F 68% 29.83 in 6.2 mi NW 9.2 mph - N/A   Partly Cloudy
6:30 AM 66.2 °F 55.4 °F 68% 29.83 in 6.2 mi NW 11.5 mph - N/A   Partly Cloudy
7:00 AM 64.4 °F 55.4 °F 73% 29.83 in 6.2 mi NNW 11.5 mph - N/A   Partly Cloudy
7:30 AM 64.4 °F 55.4 °F 73% 29.86 in 6.2 mi NNW 11.5 mph - N/A   Partly Cloudy
8:00 AM 67 °F 54 °F 53% 29.86 in 19 mi NNW 13.8 mph - -   Scattered Clouds
8:00 AM 66.2 °F 55.4 °F 68% 29.86 in 6.2 mi NNW 13.8 mph 27.6 mph N/A   Partly Cloudy
8:30 AM 68.0 °F 55.4 °F 64% 29.86 in 6.2 mi NNW 16.1 mph 27.6 mph N/A   Partly Cloudy
9:00 AM 68.0 °F 55.4 °F 64% 29.86 in 6.2 mi NNW 16.1 mph 28.8 mph N/A   Partly Cloudy
9:30 AM 69.8 °F 55.4 °F 60% 29.89 in 6.2 mi NW 13.8 mph - N/A   Partly Cloudy
10:00 AM 71.6 °F 55.4 °F 57% 29.89 in 6.2 mi NNW 15.0 mph 26.5 mph N/A   Partly Cloudy
10:30 AM 73.4 °F 57.2 °F 57% 29.89 in 6.2 mi NNW 11.5 mph - N/A   Partly Cloudy
11:00 AM 73.4 °F 57.2 °F 57% 29.89 in 6.2 mi NNW 9.2 mph - N/A   Scattered Clouds
11:30 AM 73.4 °F 59.0 °F 61% 29.92 in 6.2 mi NW 4.6 mph - N/A   Scattered Clouds
12:00 PM 73.4 °F 59.0 °F 61% 29.92 in 6.2 mi SSW 11.5 mph - N/A   Mostly Cloudy
12:30 PM 73.4 °F 59.0 °F 61% 29.92 in 6.2 mi SSW 10.4 mph - N/A   Scattered Clouds
1:00 PM 75.2 °F 60.8 °F 61% 29.92 in 6.2 mi SSW 9.2 mph - N/A   Partly Cloudy
1:30 PM 73.4 °F 57.2 °F 57% 29.92 in 6.2 mi SSW 11.5 mph - N/A   Partly Cloudy
2:00 PM 76 °F 53 °F 34% 29.93 in 16 mi SSW 13.8 mph - -   Scattered Clouds
2:00 PM 75.2 °F 57.2 °F 53% 29.92 in 6.2 mi SSW 15.0 mph - N/A   Partly Cloudy
2:30 PM 77.0 °F 55.4 °F 47% 29.92 in 6.2 mi SSW 15.0 mph - N/A   Partly Cloudy
3:00 PM 77.0 °F 53.6 °F 44% 29.92 in 6.2 mi SW 16.1 mph - N/A   Partly Cloudy
3:30 PM 77.0 °F 51.8 °F 41% 29.92 in 6.2 mi SW 16.1 mph - N/A   Partly Cloudy
4:00 PM 77.0 °F 50.0 °F 39% 29.92 in 6.2 mi SW 19.6 mph - N/A   Partly Cloudy
4:30 PM 77.0 °F 50.0 °F 39% 29.92 in 6.2 mi SW 19.6 mph - N/A   Partly Cloudy
5:00 PM 77.0 °F 53.6 °F 44% 29.92 in 6.2 mi SW 20.7 mph - N/A   Partly Cloudy
5:30 PM 75.2 °F 50.0 °F 41% 29.89 in 6.2 mi SW 20.7 mph - N/A   Partly Cloudy
6:00 PM 75.2 °F 53.6 °F 47% 29.89 in 6.2 mi SW 20.7 mph - N/A   Partly Cloudy
6:30 PM 75.2 °F 53.6 °F 47% 29.92 in 6.2 mi SW 23.0 mph - N/A   Partly Cloudy
7:00 PM 73.4 °F 53.6 °F 50% 29.92 in 6.2 mi SW 20.7 mph - N/A   Partly Cloudy
7:30 PM 73.4 °F 55.4 °F 53% 29.92 in 6.2 mi SW 20.7 mph - N/A   Partly Cloudy
8:00 PM 73 °F 53 °F 39% 29.93 in 19 mi SW 15.0 mph - -   Scattered Clouds
8:00 PM 73.4 °F 55.4 °F 53% 29.92 in 6.2 mi SW 17.3 mph - N/A   Partly Cloudy
8:30 PM 71.6 °F 57.2 °F 60% 29.92 in 6.2 mi SW 15.0 mph - N/A   Partly Cloudy
9:00 PM 69.8 °F 59.0 °F 68% 29.92 in 6.2 mi SW 18.4 mph - N/A   Partly Cloudy
9:30 PM 69.8 °F 60.8 °F 73% 29.95 in 6.2 mi SW 17.3 mph - N/A   Partly Cloudy
10:00 PM 69.8 °F 60.8 °F 73% 29.95 in 6.2 mi SW 12.7 mph - N/A   Partly Cloudy
10:30 PM 69.8 °F 57.2 °F 64% 29.95 in 6.2 mi SW 12.7 mph - N/A   Partly Cloudy
11:00 PM 69.8 °F 57.2 °F 64% 29.95 in 6.2 mi WSW 9.2 mph - N/A   Partly Cloudy
11:30 PM 69.8 °F 55.4 °F 60% 29.95 in 6.2 mi West 3.5 mph - N/A   Partly Cloudy